Flag for U.S.A. Weather past 2 weeks in Wilmington, Delaware, U.S.A.

Now
39 °F

Fog.


Feels Like: 36 °F
Forecast: 40 / 49 °F
Wind: 5 mph from South

Location: New Castle County Airport

Current Time: Dec 28, 2014 at 12:18:03 AM

Latest Report: Dec 27, 2014 at 11:51 PM


Visibility: 4 mi

Pressure: 30.09 "Hg

Humidity: 93%

Dew point: 37 °F

Location of WilmingtonLocation

Historic Weather in Wilmington — Graph

°F

Wilmington temperature yesterday

Maximum temperature yesterday: 56 °F (at 1:51 PM)
Minimum temperature yesterday: 30 °F (at 4:51 AM)
Average temperature yesterday: 42 °F

Past Weeks' High & Low Weather Summary

 TemperatureHumidityPressure
High65 °F (Dec 24, 11:51 PM)100% (Dec 24, 1:51 AM)30.36 "Hg (Dec 24, 1:51 AM)
Low23 °F (Dec 22, 6:51 AM)38% (Dec 27, 3:51 PM)29.54 "Hg (Dec 25, 12:51 AM)
Average41 °F73%30.08 "Hg
* Reported Dec 12 9:51 PM — Dec 27 9:51 PM, Wilmington, Weather by CustomWeather, © 2014

Note: Actual official high and low records may vary slightly from our data, if they occured in-between our weather recording intervals... More about our weather records

Advertising

Wilmington weather history for previous 24 hours

 ConditionsComfort  
Time TempWeatherWind HumidityBarometerVisibility
9:51 PM
Dec 27
40 °FFog.3 mph89%30.15 "Hg6 mi
8:51 PM41 °FClear.6 mph89%30.16 "Hg10 mi
7:51 PM42 °FClear.7 mph85%30.18 "Hg10 mi
6:51 PM43 °FClear.5 mph79%30.20 "Hg10 mi
5:51 PM46 °FClear.7 mph56%30.19 "Hg10 mi
4:51 PM49 °FClear.5 mph50%30.18 "Hg10 mi
3:51 PM53 °FSunny.7 mph38%30.19 "Hg10 mi
2:51 PM55 °FSunny.8 mph44%30.20 "Hg10 mi
1:51 PM56 °FSunny.No wind42%30.19 "Hg10 mi
12:51 PM54 °FSunny.3 mph51%30.23 "Hg10 mi
11:51 AM53 °FSunny.3 mph48%30.26 "Hg10 mi
10:51 AM48 °FSunny.No wind63%30.30 "Hg10 mi
9:51 AM42 °FSunny.No wind79%30.30 "Hg10 mi
8:51 AM35 °FSunny.No wind88%30.30 "Hg7 mi
7:51 AM32 °FIce fog.No wind92%30.28 "Hg5 mi
6:51 AM31 °FClear.No wind92%30.27 "Hg7 mi
5:51 AM33 °FClear.5 mph88%30.26 "Hg7 mi
4:51 AM30 °FClear.5 mph92%30.26 "Hg8 mi
3:51 AM31 °FClear.No wind89%30.24 "Hg7 mi
2:51 AM33 °FClear.No wind88%30.25 "Hg8 mi
1:51 AM33 °FClear.3 mph88%30.24 "Hg10 mi
12:51 AM34 °FClear.No wind85%30.24 "Hg10 mi
Weather by CustomWeather, © 2014

See weather overviewHow to use our weather pages